Bigfork, MN

11:22 AM CST on February 23, 2017 (GMT -0600)
Bigfork Municipal

Weather History for KFOZ - March, 2013

Change the Weather History Date:

Sunday, March 3, 2013

  Actual Average (KGPZ) Record (KGPZ)
Temperature  
Mean Temperature 24 °F -  
Max Temperature 33 °F 32 °F 57 °F (1993)
Min Temperature 14 °F 7 °F -32 °F (1916)
Degree Days  
Heating Degree Days 42    
Moisture  
Dew Point 5 °F    
Average Humidity 45    
Maximum Humidity 68    
Minimum Humidity 25    
Precipitation  
Precipitation 0.00 in - - ()
Sea Level Pressure  
Sea Level Pressure 30.03 in    
Wind  
Wind Speed 5 mph (SE)    
Max Wind Speed 12 mph    
Max Gust Speed 18 mph    
Visibility 10 miles    
Events      
Averages and records for this station are not official NWS values.
T = Trace of Precipitation, MM = Missing Value Source: NWS Daily Summary

Daily Weather History Graph

Daily Weather History Graph

Search for Another Location

Airport or City:

Trip Planner

Search our weather history database for the weather conditions in past years. The results will help you decide how hot, cold, wet, or windy it might be!

Date:

Astronomy

Mar. 03, 2013 Rise Set
Actual Time 6:50 AM CST 6:02 PM CST
Civil Twilight 6:20 AM CST 6:33 PM CST
Nautical Twilight 5:44 AM CST 7:09 PM CST
Astronomical Twilight 5:08 AM CST 7:45 PM CST
Moon 12:09 AM CST (3/3) 9:37 AM CST (3/3)
Length of Visible Light 12h 13m
Length of Day
11h 11m
Waning Gibbous, 63% of the Moon is Illuminated
Mar 3
Waning Gibbous
Mar 4
Last Quarter
Mar 11
New
Mar 19
First Quarter
Mar 27
Full

Hourly Weather History & Observations

Time (CST) Temp. Windchill Dew Point Humidity Pressure Visibility Wind Dir Wind Speed Gust Speed Precip Events Conditions
12:13 AM 23.0 °F - 3.2 °F 43% 30.10 in 10.0 mi Calm Calm - N/A   Overcast
12:33 AM 23.0 °F - 3.2 °F 43% 30.10 in 10.0 mi Calm Calm - N/A   Overcast
12:53 AM 21.2 °F - 5.0 °F 50% 30.09 in 10.0 mi Calm Calm - N/A   Overcast
1:33 AM 21.2 °F 14.9 °F 5.0 °F 50% 30.09 in 10.0 mi ESE 4.6 mph - N/A   Overcast
1:53 AM 21.2 °F 16.4 °F 5.0 °F 50% 30.09 in 10.0 mi ESE 3.5 mph - N/A   Overcast
2:13 AM 19.4 °F 12.8 °F 3.2 °F 49% 30.09 in 10.0 mi East 4.6 mph - N/A   Overcast
2:33 AM 19.4 °F 12.8 °F 5.0 °F 54% 30.09 in 10.0 mi ESE 4.6 mph - N/A   Overcast
2:53 AM 19.4 °F 12.8 °F 5.0 °F 54% 30.08 in 10.0 mi ESE 4.6 mph - N/A   Overcast
3:13 AM 19.4 °F 11.5 °F 6.8 °F 58% 30.08 in 10.0 mi SE 5.8 mph - N/A   Overcast
3:33 AM 19.4 °F 14.3 °F 6.8 °F 58% 30.08 in 10.0 mi SE 3.5 mph - N/A   Overcast
3:53 AM 17.6 °F 12.3 °F 6.8 °F 63% 30.08 in 10.0 mi SE 3.5 mph - N/A   Overcast
4:13 AM 17.6 °F 12.3 °F 6.8 °F 63% 30.08 in 10.0 mi SE 3.5 mph - N/A   Overcast
4:33 AM 17.6 °F - 6.8 °F 63% 30.08 in 10.0 mi Calm Calm - N/A   Overcast
4:53 AM 17.6 °F - 6.8 °F 63% 30.08 in 10.0 mi Calm Calm - N/A   Overcast
5:13 AM 17.6 °F 12.3 °F 6.8 °F 63% 30.07 in 10.0 mi SE 3.5 mph - N/A   Overcast
5:33 AM 17.6 °F - 6.8 °F 63% 30.07 in 10.0 mi Calm Calm - N/A   Overcast
5:53 AM 15.8 °F - 6.8 °F 68% 30.08 in 10.0 mi Calm Calm - N/A   Overcast
6:13 AM 15.8 °F 10.2 °F 6.8 °F 68% 30.08 in 10.0 mi ESE 3.5 mph - N/A   Overcast
6:33 AM 15.8 °F 10.2 °F 6.8 °F 68% 30.08 in 10.0 mi SE 3.5 mph - N/A   Mostly Cloudy
6:53 AM 14.0 °F 8.2 °F 5.0 °F 67% 30.07 in 10.0 mi ESE 3.5 mph - N/A   Mostly Cloudy
7:13 AM 15.8 °F 10.2 °F 5.0 °F 62% 30.07 in 10.0 mi SE 3.5 mph - N/A   Mostly Cloudy
7:33 AM 15.8 °F 8.6 °F 6.8 °F 68% 30.07 in 10.0 mi SE 4.6 mph - N/A   Overcast
7:53 AM 15.8 °F 10.2 °F 6.8 °F 68% 30.06 in 10.0 mi SE 3.5 mph - N/A   Overcast
8:13 AM 17.6 °F 9.3 °F 6.8 °F 63% 30.05 in 10.0 mi SSE 5.8 mph - N/A   Overcast
8:33 AM 17.6 °F 7.3 °F 6.8 °F 63% 30.05 in 10.0 mi SSE 8.1 mph - N/A   Mostly Cloudy
8:53 AM 19.4 °F 11.5 °F 6.8 °F 58% 30.05 in 10.0 mi SSE 5.8 mph - N/A   Scattered Clouds
9:13 AM 21.2 °F 10.9 °F 6.8 °F 54% 30.05 in 10.0 mi SSE 9.2 mph - N/A   Scattered Clouds
9:33 AM 24.8 °F 16.1 °F 6.8 °F 46% 30.05 in 10.0 mi SSE 8.1 mph - N/A   Mostly Cloudy
9:53 AM 26.6 °F 16.8 °F 6.8 °F 43% 30.05 in 10.0 mi SSE 10.4 mph 16.1 mph N/A   Overcast
10:13 AM 26.6 °F 18.2 °F 6.8 °F 43% 30.04 in 10.0 mi SE 8.1 mph - N/A   Overcast
10:33 AM 28.4 °F 19.1 °F 8.6 °F 43% 30.04 in 10.0 mi South 10.4 mph - N/A   Mostly Cloudy
10:53 AM 28.4 °F 19.1 °F 6.8 °F 40% 30.04 in 10.0 mi South 10.4 mph 18.4 mph N/A   Scattered Clouds
11:13 AM 28.4 °F 19.1 °F 8.6 °F 43% 30.03 in 10.0 mi South 10.4 mph 16.1 mph N/A   Clear
11:33 AM 30.2 °F 22.6 °F 6.8 °F 37% 30.03 in 10.0 mi SSE 8.1 mph - N/A   Clear
11:53 AM 30.2 °F 24.3 °F 6.8 °F 37% 30.02 in 10.0 mi SE 5.8 mph - N/A   Clear
12:13 PM 30.2 °F 21.9 °F 5.0 °F 34% 30.02 in 10.0 mi SSE 9.2 mph - N/A   Clear
12:33 PM 30.2 °F 21.9 °F 3.2 °F 32% 30.02 in 10.0 mi South 9.2 mph 16.1 mph N/A   Scattered Clouds
12:53 PM 32.0 °F 23.0 °F 5.0 °F 32% 30.01 in 10.0 mi South 11.5 mph - N/A   Scattered Clouds
1:13 PM 32.0 °F 24.2 °F 5.0 °F 32% 30.00 in 10.0 mi South 9.2 mph - N/A   Mostly Cloudy
1:53 PM 32.0 °F 23.6 °F 5.0 °F 32% 29.99 in 10.0 mi SE 10.4 mph - N/A   Scattered Clouds
2:33 PM 33.8 °F 27.0 °F 3.2 °F 28% 29.98 in 10.0 mi SE 8.1 mph - N/A   Mostly Cloudy
2:53 PM 33.8 °F 25.8 °F 1.4 °F 25% 29.98 in 10.0 mi ESE 10.4 mph - N/A   Scattered Clouds
3:33 PM 32.0 °F 23.6 °F 1.4 °F 27% 29.98 in 10.0 mi SE 10.4 mph - N/A   Clear
3:53 PM 32.0 °F 24.2 °F -0.4 °F 25% 29.98 in 10.0 mi SSE 9.2 mph - N/A   Scattered Clouds
4:13 PM 32.0 °F 25.6 °F 1.4 °F 27% 29.98 in 10.0 mi SE 6.9 mph - N/A   Mostly Cloudy
4:33 PM 30.2 °F 22.6 °F 1.4 °F 29% 29.99 in 10.0 mi ESE 8.1 mph - N/A   Overcast
4:53 PM 30.2 °F 22.6 °F 1.4 °F 29% 29.98 in 10.0 mi ESE 8.1 mph - N/A   Overcast
5:13 PM 30.2 °F 21.9 °F 1.4 °F 29% 29.98 in 10.0 mi SE 9.2 mph - N/A   Mostly Cloudy
5:33 PM 30.2 °F 24.3 °F 1.4 °F 29% 29.98 in 10.0 mi SE 5.8 mph - N/A   Scattered Clouds
5:53 PM 30.2 °F 26.7 °F 1.4 °F 29% 29.98 in 10.0 mi SE 3.5 mph - N/A   Scattered Clouds
6:13 PM 28.4 °F 22.2 °F 1.4 °F 31% 29.98 in 10.0 mi SE 5.8 mph - N/A   Scattered Clouds
6:33 PM 28.4 °F 23.3 °F 1.4 °F 31% 29.99 in 10.0 mi SE 4.6 mph - N/A   Mostly Cloudy
6:53 PM 28.4 °F 22.2 °F 1.4 °F 31% 29.99 in 10.0 mi ESE 5.8 mph - N/A   Mostly Cloudy
7:13 PM 28.4 °F 22.2 °F 1.4 °F 31% 29.99 in 10.0 mi SE 5.8 mph - N/A   Mostly Cloudy
7:33 PM 28.4 °F 22.2 °F 1.4 °F 31% 29.99 in 10.0 mi SE 5.8 mph - N/A   Mostly Cloudy
7:53 PM 28.4 °F 20.4 °F 1.4 °F 31% 29.99 in 10.0 mi SE 8.1 mph - N/A   Overcast
8:13 PM 28.4 °F 18.5 °F 3.2 °F 34% 29.99 in 10.0 mi SE 11.5 mph - N/A   Overcast
8:33 PM 26.6 °F 16.8 °F 3.2 °F 37% 29.99 in 10.0 mi ESE 10.4 mph - N/A   Overcast
8:53 PM 26.6 °F 18.2 °F 3.2 °F 37% 29.99 in 10.0 mi ESE 8.1 mph - N/A   Mostly Cloudy
9:13 PM 26.6 °F 19.1 °F 3.2 °F 37% 29.99 in 10.0 mi ESE 6.9 mph - N/A   Scattered Clouds
9:33 PM 26.6 °F 21.2 °F 3.2 °F 37% 29.99 in 10.0 mi ESE 4.6 mph - N/A   Clear
9:53 PM 24.8 °F 17.9 °F 5.0 °F 43% 29.99 in 10.0 mi SE 5.8 mph - N/A   Clear
10:13 PM 24.8 °F 16.1 °F 6.8 °F 46% 30.00 in 10.0 mi SE 8.1 mph - N/A   Scattered Clouds
10:33 PM 24.8 °F 15.3 °F 6.8 °F 46% 29.99 in 10.0 mi ESE 9.2 mph - N/A   Mostly Cloudy
10:53 PM 24.8 °F 15.3 °F 8.6 °F 50% 30.00 in 10.0 mi ESE 9.2 mph - N/A   Overcast
11:13 PM 24.8 °F 17.9 °F 8.6 °F 50% 30.00 in 10.0 mi ESE 5.8 mph - N/A   Overcast
11:33 PM 24.8 °F 14.6 °F 8.6 °F 50% 30.00 in 10.0 mi ESE 10.4 mph - N/A   Overcast
11:53 PM 23.0 °F 13.9 °F 8.6 °F 54% 30.01 in 10.0 mi ESE 8.1 mph - N/A   Mostly Cloudy